Regional Weather Roundup
Issued by NWS Goodland, KS

Home | Current Version | Previous Version | Text Only | Print | Product List | Glossary Off
Versions: 1 2 3 4 5 6 7 8 9 10 11 12 13 14 15 16 17 18 19 20 21 22 23 24 25 26 27 28 29 30 31 32 33 34 35 36 37 38 39 40 41 42 43 44 45 46 47 48 49 50

973
ASUS43 KGLD 110459
RWRGLD

GOODLAND FORECAST AREA HOURLY WEATHER ROUNDUP
NATIONAL WEATHER SERVICE GOODLAND KS
1000 PM MST WED FEB 10 2016

...OFFICIAL OBSERVATIONS...

CITY           SKY/WX    TMP DP  RH WIND       PRES   REMARKS
GOODLAND KS    CLOUDY    39  28  64 NW13      30.11R
HILL CITY KS   CLOUDY    41  31  67 N7        30.08R
IMPERIAL NEB   CLEAR     37  28  70 W7        30.11R
MCCOOK NEB     CLOUDY    35  29  78 N7        30.10R
AKRON CO       CLEAR     37  24  59 NW15      30.15R
BURLINGTON CO  CLOUDY    37  25  61 W12       30.15R
LIMON CO       CLOUDY    33  23  66 NW7       30.20R
$$

...UNOFFICIAL OBSERVATIONS...

CITY           SKY/WX    TMP DP  RH WIND       PRES   REMARKS
COLBY KS       CLEAR     39  34  81 W13       30.10R
GOVE KS          N/A     37  32  82 MISG        N/A
LENORA KS        N/A     39  32  76 MISG        N/A
NORTON KS      CLEAR     37  27  65 N7        30.08R
SHARON SPRINGS   N/A     41  32  69 N10         N/A
TRENTON NEB      N/A     37  32  82 MISG        N/A
KIT CARSON CO    N/A     45  25  45 MISG        N/A
YUMA CO          N/A     34  27  76 NW8         N/A
$$




USA.gov is the U.S. government's official web portal to all federal, state and local government web resources and services.